[[{"header":{"parameterUnit":"m.s-1","parameterCategory":1,"la1":30.2991,"la2":30.254,"lo1":-89.0895,"lo2":-89.0444,"dy":0.0017,"dx":0.0017,"nx":28,"ny":28,"refTime":"2024-07-12T09:00:00:Z","depth":0,"parameterNumber":2,"parameterNumberName":"U-component_of_WINDS"},"data":[0,0,0,0,0,0,0,0,0,0,0,0,0,0,0,0,0,0,0,0,0,0,0,0,0,0,0,0,0,0,0,0,0,0,0,0,0,0,0,0,0,0,0,0,0,0,0,0,0,0,0,0,0,0,0,0,0,0,1.687,1.6871,0,1.7006,1.7007,1.7009,1.706,1.706,1.7059,1.7059,1.7196,1.72,1.7204,0,0,0,0,0,0,0,0,0,0,0,0,0,1.6651,1.6655,1.6869,1.6871,1.6873,1.7005,1.7007,1.7009,1.706,1.706,1.7059,1.7059,1.7195,1.72,1.7205,0,0,0,0,0,0,0,0,0,0,0,0,0,1.6762,1.6656,1.6869,1.6914,1.692,1.7005,1.7007,1.701,1.706,1.706,1.7059,1.7058,1.7193,1.7199,1.7205,1.7255,0,0,1.7224,1.7226,0,0,0,0,0,0,0,0,1.6756,1.677,1.6906,1.6911,1.6918,1.7015,1.6981,1.7092,1.706,1.7007,1.7059,1.7058,1.7136,1.7147,1.7174,1.7261,1.7267,1.7224,1.7228,1.7231,1.7232,0,0,0,0,0,0,0,1.6748,1.6765,1.6923,1.6908,1.6915,1.6927,1.6942,1.7002,1.7073,1.7011,1.7016,1.7031,1.7139,1.7168,1.7178,1.7269,1.7224,1.7229,1.7233,1.7236,1.7403,1.7404,0,0,0,0,0,0,1.6733,1.6758,1.6919,1.6927,1.6834,1.6931,1.6948,1.6985,1.7073,1.7086,1.7031,1.7033,1.7158,1.717,1.7183,1.7246,1.723,1.7236,1.724,1.7402,1.7403,1.7404,0,0,0,0,0,0,1.6728,1.6747,1.6913,1.6844,1.6866,1.6936,1.6976,1.6988,1.7016,1.7088,1.7101,1.7048,1.7158,1.7174,1.7236,1.7251,1.7239,1.7244,1.7401,1.7402,1.7404,1.7373,0,0,0,0,0,0,1.6722,1.6745,1.6765,1.6844,1.6869,1.6966,1.6977,1.6991,1.7027,1.703,1.7107,1.7119,1.7159,1.7227,1.7242,1.7259,1.7249,1.74,1.7402,1.7403,1.7373,1.7373,1.7373,0,0,0,0,0,1.6714,1.6751,1.6766,1.6785,1.6896,1.6967,1.6981,1.7027,1.7028,1.7048,1.7094,1.7116,1.7247,1.7233,1.7251,1.727,1.7399,1.7401,1.7403,1.7373,1.7373,1.7373,0,0,0,0,0,0,1.6672,1.6762,1.678,1.6844,1.6897,1.6975,1.7002,1.7026,1.7079,1.708,1.7134,1.7151,1.7209,1.7246,1.7228,1.7322,1.7325,1.733,1.7296,1.7296,1.7296,1.7286,1.7254,0,0,0,0,0,1.667,1.672,1.6796,1.6845,1.6871,1.6932,1.6964,1.6995,1.7052,1.7075,1.7125,1.7179,1.7233,1.7267,1.732,1.7379,1.7395,1.74,1.74,1.74,1.7404,1.7437,1.744,1.741,1.741,1.741,0,0,1.6667,1.6722,1.6751,1.6838,1.6883,1.6933,1.6951,1.7003,1.704,1.7083,1.7145,1.7183,1.7247,1.7308,1.7337,1.734,1.7416,1.7402,1.7401,1.7406,1.7439,1.7442,1.7444,1.7411,1.7411,1.7411,0,0,1.6686,1.6734,1.6779,1.6824,1.6892,1.6932,1.6943,1.7017,1.7045,1.7108,1.7141,1.7185,1.7276,1.732,1.7354,1.7389,1.7411,1.7405,1.7405,1.7436,1.7439,1.7441,1.7453,1.7457,1.7409,1.7409,1.7409,0,1.6673,1.6751,1.6799,1.685,1.6887,1.6928,1.6974,1.7015,1.7096,1.712,1.7123,1.7238,1.7284,1.7354,1.7363,1.7389,1.7403,1.7396,1.7435,1.7437,1.744,1.7452,1.7456,1.7407,1.7408,1.7408,1.7408,0,1.6731,1.6784,1.6812,1.689,1.6931,1.6978,1.7034,1.7068,1.7095,1.7135,1.7198,1.7254,1.7319,1.7338,1.7365,1.7413,1.7413,1.7424,1.7428,1.7441,1.7453,1.7458,1.7406,1.7406,1.7406,1.7407,0,0,1.6727,1.6832,1.6842,1.6877,1.6955,1.6996,1.7045,1.7109,1.7138,1.7192,1.7234,1.731,1.7321,1.7359,1.7391,1.7419,1.7442,1.7427,1.743,1.7428,1.7497,1.7488,1.7492,1.7457,1.7458,1.7459,1.7492,0,1.6757,1.6847,1.6893,1.6963,1.7012,1.7052,1.7094,1.7146,1.7184,1.723,1.7272,1.7324,1.7336,1.7359,1.7388,1.7433,1.7457,1.7431,1.7496,1.7498,1.7478,1.7499,1.7489,1.7517,1.7497,1.7498,1.7498,0,1.6803,1.6858,1.6933,1.7005,1.7027,1.7065,1.7126,1.7171,1.7229,1.7255,1.7298,1.7329,1.7381,1.7381,1.7453,1.7435,1.7464,1.749,1.7492,1.75,1.7498,1.7506,1.7527,1.7531,1.7506,1.7505,1.7505,0,1.6792,1.6884,1.6942,1.6971,1.7056,1.7081,1.7118,1.7176,1.7211,1.7265,1.7288,1.7347,1.7379,1.7423,1.7469,1.7465,1.7536,1.7541,1.7558,1.7557,1.7571,1.757,1.7597,1.7591,1.7591,1.759,1.759,0,1.6819,1.6864,1.6938,1.6973,1.7024,1.7075,1.7123,1.7162,1.7214,1.7256,1.7294,1.7333,1.7391,1.7437,1.7473,1.7527,1.7541,1.7563,1.7572,1.7559,1.7556,1.7579,1.7578,1.7592,1.7591,1.7591,1.7591,0,1.6816,1.6867,1.6932,1.7007,1.7027,1.7061,1.7125,1.716,1.7199,1.7252,1.7268,1.733,1.7386,1.7436,1.751,1.7534,1.7589,1.76,1.7569,1.7574,1.7589,1.7586,1.7631,1.7639,1.7627,1.7627,1.7627,0,1.683,1.6865,1.6944,1.6975,1.7011,1.7062,1.7098,1.7149,1.7185,1.7255,1.7281,1.734,1.739,1.7477,1.7528,1.7585,1.7598,1.7609,1.7606,1.7592,1.7597,1.7594,1.7598,1.7608,1.7608,1.7608,1.7608,0,1.6849,1.6872,1.6924,1.6984,1.7026,1.7076,1.7126,1.715,1.721,1.7248,1.7306,1.7345,1.7421,1.7478,1.7541,1.7577,1.7602,1.7609,1.7616,1.7603,1.7583,1.7594,1.7568,1.7607,1.7608,1.7608,1.7608,1.7608,1.6854,1.6887,1.6948,1.7003,1.7047,1.7093,1.7129,1.7174,1.7223,1.7289,1.7316,1.7375,1.7432,1.7519,1.7555,1.7601,1.7606,1.7616,1.7619,1.762,1.7618,1.7576,1.7613,1.7613,1.7613,1.7613,1.7613,0,1.6875,1.6916,1.6966,1.7036,1.7079,1.71,1.7157,1.7192,1.7243,1.7295,1.7343,1.7409,1.7465,1.752,1.7579,1.7605,1.7618,1.7619,1.7617,1.7625,1.761,1.7598,1.7607,1.7607,1.7607,1.7607,1.7607,1.7607,1.689,1.6947,1.6978,1.7056,1.7096,1.7155,1.7185,1.7228,1.7269,1.7341,1.7388,1.7424,1.7477,1.754,1.7592,1.7607,1.7626,1.7623,1.7641,1.7626,1.7626,1.7626,1.7615,1.7627,1.7627,1.7652,1.7652,1.7652]},{"header":{"parameterUnit":"m.s-1","parameterCategory":1,"la1":30.2991,"la2":30.254,"lo1":-89.0895,"lo2":-89.0444,"dy":0.0017,"dx":0.0017,"nx":28,"ny":28,"refTime":"2024-07-12T09:00:00:Z","depth":0,"parameterNumber":3,"parameterNumberName":"V-component_of_WINDS"},"data":[0,0,0,0,0,0,0,0,0,0,0,0,0,0,0,0,0,0,0,0,0,0,0,0,0,0,0,0,0,0,0,0,0,0,0,0,0,0,0,0,0,0,0,0,0,0,0,0,0,0,0,0,0,0,0,0,0,0,3.9615,3.9615,0,3.9576,3.9576,3.9575,3.9509,3.9508,3.9506,3.9505,3.9466,3.9466,3.9466,0,0,0,0,0,0,0,0,0,0,0,0,0,3.9634,3.9634,3.9615,3.9615,3.9614,3.9576,3.9576,3.9575,3.9509,3.9508,3.9506,3.9505,3.9466,3.9466,3.9466,0,0,0,0,0,0,0,0,0,0,0,0,0,3.9614,3.9634,3.9615,3.9577,3.9573,3.9576,3.9575,3.9575,3.9509,3.9508,3.9506,3.9504,3.9466,3.9466,3.9466,3.9504,0,0,3.9466,3.9466,0,0,0,0,0,0,0,0,3.9615,3.9613,3.9583,3.9579,3.9575,3.9545,3.9568,3.9551,3.951,3.9534,3.9505,3.9503,3.9494,3.9491,3.9488,3.9502,3.95,3.9466,3.9466,3.9466,3.9466,0,0,0,0,0,0,0,3.9616,3.9614,3.96,3.9583,3.9578,3.9562,3.9557,3.9564,3.9525,3.9531,3.9526,3.9523,3.9491,3.9488,3.9487,3.95,3.9466,3.9466,3.9466,3.9467,3.9542,3.9544,0,0,0,0,0,0,3.9623,3.9616,3.9601,3.9599,3.9591,3.9563,3.9557,3.9557,3.9524,3.9517,3.9524,3.952,3.9489,3.9487,3.9485,3.9527,3.9466,3.9467,3.9467,3.954,3.9542,3.9545,0,0,0,0,0,0,3.9624,3.9623,3.9603,3.9606,3.9602,3.9565,3.9565,3.9557,3.9554,3.9519,3.9512,3.9528,3.9487,3.9485,3.9499,3.9524,3.9467,3.9467,3.9538,3.9541,3.9543,3.9611,0,0,0,0,0,0,3.9625,3.9623,3.9637,3.9607,3.9602,3.9618,3.9566,3.9558,3.9554,3.9548,3.9521,3.9514,3.9486,3.95,3.95,3.9524,3.9467,3.9535,3.9539,3.9543,3.9606,3.9616,3.9624,0,0,0,0,0,3.9626,3.9658,3.9638,3.9637,3.9619,3.9619,3.9617,3.9583,3.9557,3.957,3.9548,3.9515,3.9522,3.9502,3.9501,3.9526,3.9534,3.9538,3.9542,3.9602,3.9614,3.9624,0,0,0,0,0,0,3.9692,3.9653,3.9631,3.9654,3.964,3.9608,3.9624,3.9596,3.959,3.9584,3.9542,3.9537,3.9557,3.9543,3.9521,3.956,3.9523,3.9527,3.9569,3.9579,3.9588,3.9591,3.9467,0,0,0,0,0,3.971,3.9713,3.9679,3.9703,3.9697,3.9662,3.9661,3.9636,3.962,3.9614,3.9593,3.9579,3.9578,3.9578,3.9575,3.9604,3.9597,3.9621,3.963,3.9637,3.9641,3.9655,3.9665,3.9559,3.9559,3.9559,0,0,3.9745,3.9725,3.9729,3.9715,3.9702,3.9707,3.9657,3.9665,3.9668,3.9615,3.9627,3.9612,3.9593,3.9615,3.9624,3.9604,3.9669,3.9643,3.9649,3.9649,3.9661,3.9671,3.968,3.9562,3.9561,3.9561,0,0,3.9813,3.9798,3.9815,3.9803,3.9783,3.976,3.9764,3.9736,3.9724,3.9735,3.9696,3.9699,3.9698,3.9687,3.9681,3.9745,3.9715,3.9745,3.9791,3.9805,3.9813,3.9821,3.9843,3.9851,3.9749,3.975,3.975,0,3.986,3.9865,3.9828,3.9838,3.9833,3.9786,3.9804,3.9793,3.9774,3.9772,3.975,3.9748,3.9732,3.9751,3.9766,3.9763,3.9767,3.9748,3.9815,3.9822,3.9828,3.9849,3.9857,3.9753,3.9753,3.9753,3.9752,0,3.9924,3.9928,3.9945,3.9927,3.9924,3.9938,3.9903,3.9905,3.9881,3.986,3.9872,3.9852,3.9844,3.9847,3.9823,3.9862,3.985,3.9823,3.9784,3.9843,3.9861,3.9869,3.9759,3.9757,3.9756,3.9755,0,0,4.0031,3.9993,4.0,3.9991,3.9966,3.9969,3.9981,3.9973,3.9975,3.9963,3.9972,3.9972,3.9946,3.994,3.9914,3.9927,3.9978,3.9897,3.9896,3.9913,4.002,4.004,4.005,3.9959,3.996,3.9961,4.0021,0,4.0093,4.011,4.0078,4.0103,4.0107,4.0062,4.0072,4.0058,4.0039,4.004,4.0019,4.0019,3.9986,3.9981,3.9992,3.997,3.9999,3.9965,3.9966,3.9967,3.9971,4.006,4.0082,4.0139,4.0028,4.0029,4.003,0,4.0167,4.0159,4.0184,4.0158,4.0158,4.0168,4.0158,4.0159,4.0142,4.0127,4.012,4.0091,4.01,4.0064,4.0077,4.0054,4.0053,4.0042,4.0044,4.0042,4.0001,4.006,4.0156,4.0165,4.0042,4.0041,4.004,0,4.0242,4.0237,4.0252,4.0246,4.0216,4.0224,4.0211,4.0193,4.019,4.0182,4.0179,4.0173,4.0169,4.0164,4.0133,4.011,4.015,4.0111,4.0138,4.0138,4.0147,4.0147,4.0245,4.0148,4.0148,4.0148,4.0147,0,4.0313,4.0331,4.0285,4.0294,4.0312,4.0275,4.0294,4.0278,4.0262,4.0267,4.0228,4.0234,4.0193,4.0195,4.0171,4.0185,4.0183,4.0172,4.0165,4.0175,4.0176,4.0173,4.0168,4.015,4.0149,4.0149,4.0149,0,4.04,4.037,4.0383,4.0353,4.0346,4.0361,4.0336,4.0343,4.0322,4.0329,4.0328,4.0295,4.0294,4.0263,4.0256,4.024,4.0264,4.025,4.027,4.0265,4.0293,4.0291,4.0391,4.0403,4.03,4.0301,4.0302,0,4.0447,4.0459,4.0431,4.0432,4.0421,4.0423,4.042,4.0384,4.0383,4.0365,4.0374,4.0371,4.0366,4.0367,4.0342,4.0337,4.0322,4.0358,4.0321,4.033,4.0322,4.0321,4.0322,4.0365,4.0367,4.0368,4.0369,0,4.0534,4.0519,4.0516,4.0509,4.0506,4.0498,4.0488,4.0491,4.0452,4.0452,4.0451,4.0447,4.044,4.0437,4.0427,4.0415,4.0385,4.0381,4.0386,4.0396,4.0406,4.0401,4.029,4.0378,4.0377,4.0377,4.0376,4.0376,4.0602,4.0611,4.0592,4.059,4.0579,4.0571,4.0576,4.0555,4.0554,4.0545,4.0524,4.0527,4.051,4.0493,4.0483,4.0485,4.0467,4.0475,4.0477,4.048,4.0485,4.0407,4.0483,4.0483,4.0482,4.0482,4.0482,0,4.0686,4.0672,4.0671,4.0658,4.0657,4.063,4.0617,4.0618,4.062,4.0607,4.0603,4.0602,4.0599,4.0574,4.0568,4.0574,4.056,4.0573,4.0572,4.057,4.0502,4.0497,4.0585,4.0585,4.0585,4.0585,4.0585,4.0584,4.073,4.0743,4.0726,4.0734,4.0719,4.0721,4.0717,4.0708,4.0698,4.0698,4.0695,4.0679,4.0661,4.0654,4.065,4.0642,4.0642,4.066,4.0648,4.0585,4.0575,4.0565,4.056,4.066,4.066,4.0715,4.0716,4.0716]}]]